CDT,Max TemperatureF,Mean TemperatureF,Min TemperatureF,Max Dew PointF,MeanDew PointF,Min DewpointF,Max Humidity, Mean Humidity, Min Humidity, Max Sea Level PressureIn, Mean Sea Level PressureIn, Min Sea Level PressureIn, Max VisibilityMiles, Mean VisibilityMiles, Min VisibilityMiles, Max Wind SpeedMPH, Mean Wind SpeedMPH, Max Gust SpeedMPH,PrecipitationIn, CloudCover, Events, WindDirDegrees
2013-4-1,46,37,28,27,22,19,90,63,34,30.26,30.21,30.16,10,10,10,12,5,,0.00,5,Thunderstorm,42
2013-4-2,59,41,23,29,23,19,83,54,22,30.21,30.15,30.10,10,10,10,16,7,24,0.00,1,,166
2013-4-3,63,46,29,34,26,18,87,50,19,30.15,30.09,30.02,10,10,10,26,10,37,0.00,0,,209
2013-4-4,57,44,33,30,22,8,75,44,16,30.17,30.11,30.07,10,10,10,20,12,25,0.00,1,,42
2013-4-5,76,55,34,30,25,17,65,36,11,30.08,29.79,29.54,10,10,10,32,16,41,0.00,2,,162
2013-4-6,69,58,47,46,33,19,87,45,15,29.82,29.72,29.55,10,10,5,25,14,37,0.00,4,Rain,307
2013-4-7,65,50,36,48,37,30,87,64,30,29.82,29.71,29.59,10,10,10,20,5,25,0.00,2,Rain,146
2013-4-8,49,40,30,46,40,29,96,87,75,29.89,29.70,29.57,10,6,0,23,13,30,0.01,5,Fog-Rain-Snow-Thunderstorm,354
2013-4-9,29,24,16,29,16,12,93,85,81,30.24,30.04,29.86,3,1,0,26,15,32,0.08,8,Snow-Thunderstorm,355
2013-4-10,25,22,19,23,19,16,90,86,80,30.15,30.03,29.90,10,3,1,18,13,21,0.00,8,Snow,341
2013-4-11,29,26,23,26,23,20,91,86,76,29.90,29.76,29.71,10,5,0,15,10,18,0.05,8,Snow,321
2013-4-12,39,30,20,32,26,18,93,82,64,29.97,29.89,29.81,10,10,5,16,7,18,0.09,6,,312
2013-4-13,41,34,28,36,32,24,95,85,73,29.97,29.74,29.51,10,9,2,17,9,,0.02,5,Rain,141
2013-4-14,46,39,32,39,31,20,96,76,47,29.68,29.46,29.29,10,7,0,29,12,37,0.11,6,Fog-Rain,306
2013-4-15,40,32,26,25,20,15,74,59,45,30.08,29.88,29.69,10,10,10,26,17,38,0.00,5,,310
2013-4-16,38,34,30,29,25,22,88,72,56,30.21,30.15,30.06,10,10,3,15,5,18,0.00,7,Snow,33
2013-4-17,31,30,27,29,27,24,93,90,83,30.20,30.10,30.01,10,5,2,30,16,36,0.01,8,Snow,13
2013-4-18,32,28,23,25,21,17,90,78,59,30.06,29.99,29.97,10,5,1,31,23,37,0.01,6,Snow,330
2013-4-19,42,30,19,27,20,15,82,64,38,30.04,29.98,29.92,10,10,10,18,9,24,0.00,2,,329
2013-4-20,53,40,28,28,25,20,86,60,35,30.08,30.02,29.96,10,10,2,23,12,29,0.00,4,Snow,143
2013-4-21,59,48,37,39,35,28,84,62,41,30.13,30.02,29.94,10,10,10,20,13,25,0.00,5,Rain,347
2013-4-22,38,32,26,34,27,21,93,85,78,30.35,30.18,30.04,10,6,0,28,15,33,0.10,8,Rain-Snow,19
2013-4-23,37,26,15,20,17,12,86,67,43,30.35,30.24,30.15,10,10,10,15,8,18,0.02,1,,317
2013-4-24,49,36,23,26,21,18,77,56,33,30.17,30.10,30.04,10,10,10,28,12,36,0.00,1,,271
2013-4-25,74,52,31,30,21,4,79,41,6,30.16,29.99,29.82,10,10,10,29,13,37,0.00,0,,215
2013-4-26,71,53,35,30,23,16,72,34,12,30.16,30.06,29.90,10,10,5,15,8,26,0.00,0,,352
2013-4-27,82,60,40,37,23,2,69,31,5,30.17,30.01,29.86,10,10,10,14,8,21,0.00,0,,215
2013-4-28,77,62,48,40,31,23,64,36,14,29.88,29.81,29.75,10,10,10,28,13,37,0.00,0,,303
2013-4-29,82,61,41,36,32,25,75,37,12,29.89,29.68,29.42,10,10,10,23,9,31,0.00,1,,164
2013-4-30,66,54,41,39,30,13,82,46,16,30.07,29.79,29.43,10,10,7,33,18,41,0.02,3,Rain-Thunderstorm,338